Overview Statistics Trail Chart Weather Telemetry Raw packets
 

This is the latest recevied weather packets stored in our database for station/object BGGH. If no packets are shown the sender has not sent any weather packets the latest 10 day(s).

<< 38 39 40 41 42 43 44 >>
Time Temp. Humidity Pressure Rain* Wind** Luminosity Snow
1787826798 10° C 81% 1017 hPa - - - -
1787826198 7.78° C 87% 1017 hPa - - - -
1787825595 7.78° C 87% 1017 hPa - - - -
1787824998 7.78° C 87% 1017 hPa - - - -
1787824398 10° C 76% 1016 hPa - - - -
1787823795 10° C 76% 1016 hPa - - - -
1787823198 10° C 76% 1016 hPa - - - -
1787822596 10° C 71% 1016 hPa - - - -
1787822001 10° C 71% 1016 hPa - - - -
1787821402 10° C 71% 1016 hPa - - - -
1787820796 8.89° C 81% 1016 hPa - - - -
1787820195 8.89° C 81% 1016 hPa - - - -
1787819592 8.89° C 81% 1016 hPa - - - -
1787818997 7.78° C 87% 1016 hPa - - - -
1787818394 7.78° C 87% 1016 hPa - - - -
1787817796 7.78° C 87% 1016 hPa - - - -
1787817197 7.78° C 87% 1016 hPa - - - -
1787816595 7.78° C 87% 1016 hPa - - - -
1787815997 7.78° C 87% 1016 hPa - - - -
1787815396 6.67° C 93% 1016 hPa - - - -
1787814794 6.67° C 93% 1016 hPa - - - -
1787814194 7.78° C 87% 1016 hPa - - - -
1787813595 7.78° C 87% 1016 hPa - - - -
1787812996 7.78° C 87% 1016 hPa - - - -
1787812396 7.78° C 87% 1016 hPa - - - -

* Rain since midnight (hover to see other rain measurements)
** Current wind speed in m/s (hover to see current wind gust speed)